Welcome to the New NWS' Forecast!
Most changes are behind the scenes, but click here for differences you might notice.
Latest weather observations around

Duluth International Airport (KDLH)

Using International System of Units (Switch to English Units)
Date/ Time (CDT) Wind (kph) Vis. (km) Weather Sky Cond. Temp (°C) Rel. Humidity Wind Chill (°C) Heat Index (°C) Pressure Precip. (cm)
Air Dwpt 6 hour Altimeter (hPa) Sea level (hPa) 1 hr 3 hr 6 hr
Max Min
Sep 18 08:28 E 21 2.01 Light Drizzle and Fog/Mist OVC004 12 11     90%     1016.6   0    
Sep 18 08:10 E 18 2.01 Light Drizzle and Fog/Mist OVC005 12 11     90%     1016.9   0    
Sep 18 08:03 E 17 3.22 Light Drizzle and Fog/Mist OVC005 12 11     90%     1016.9   0    
Sep 18 07:55 E 17 4.83 Light Drizzle and Fog/Mist OVC005 12 11     90%     1016.9 1017.5 0    
Sep 18 06:55 E 17 16.09 Cloudy OVC006 13 11     86%     1015.9 1016.5      
Sep 18 05:55 E 13 16.09 Cloudy OVC007 13 11     86%     1016.6 1016.9      
Sep 18 05:06 E 17 16.09 Cloudy OVC008 13 11     86%     1015.6        
Sep 18 04:55 E 15 16.09 Cloudy OVC010 13 11     86%     1015.9 1016.3      
Sep 18 04:17 E 15 16.09 Cloudy OVC010 13 11     86%     1016.6        
Sep 18 04:06 ESE 15 16.09 Cloudy OVC009 13 11     86%     1016.9        
Sep 18 03:55 ESE 17 16.09 Cloudy OVC010 13 11     84%     1016.6 1017.1      
Sep 18 03:12 ESE 22 16.09 Cloudy BKN011 OVC017 13 11     84%     1016.3        
Sep 18 02:55 E 21 16.09 Cloudy OVC015 13 11     84%     1016.3 1016.5      
Sep 18 01:55 E 17 16.09 Cloudy OVC012 14 11     83%     1016.3 1016.6      
Sep 18 00:55 ESE 18 16.09 Cloudy BKN010 OVC017 14 12     87%     1016.6 1016.7      
Sep 18 00:52   16.09 Cloudy BKN010 OVC017 14 12     88%     1016.6        
Sep 17 23:55 ESE 21 16.09 Mostly Cloudy FEW008 SCT014 BKN019 14 12     87%     1016.3 1016.5      
Sep 17 23:44 ESE 18 16.09 Mostly Cloudy FEW008 BKN019 14 12     87%     1016.6        
Sep 17 22:55 E 15 16.09 Mostly Clear FEW017 13 11     84%     1016.6 1016.9      
Sep 17 21:55 E 15 16.09 Mostly Clear FEW016 13 10     80%     1016.3 1016.6      
Sep 17 20:55 NE 9 16.09 Mostly Clear FEW080 13 10     83%     1015.6 1016.2      
Sep 17 19:55 NE 15 16.09 Mostly Clear FEW080 14 11     81%     1015.2 1015.7      
Sep 17 18:55 NNE 15 16.09 Partly Cloudy SCT080 15 11     75%     1015.2 1015.6      
Sep 17 17:55 NNE 11 16.09 Partly Cloudy SCT080 16 11     72%     1015.9 1016.3      
Sep 17 16:55 NNW 11 16.09 Partly Cloudy SCT080 16 11     70%     1016.9 1017      
Sep 17 15:55 WNW 11 16.09 Partly Cloudy SCT080 16 11     70%     1016.6 1016.4      
Sep 17 14:55 NW 8 16.09 Partly Cloudy SCT080 17 10     65%     1015.6 1015.4      
Sep 17 13:55 N 13 16.09 Partly Cloudy SCT080 18 10     60%     1014.9 1014.6      
Sep 17 12:55 NNW 22 16.09 Partly Cloudy SCT080 18 9     58%     1015.2 1015.1      
Sep 17 11:55 N 15 16.09 Clear CLR 17 10     65%     1014.2 1013.9      
Sep 17 10:55 NNW 24 16.09 Mostly Clear FEW015 16 9     67%     1014.2 1014.2      
Sep 17 09:55 NW 18 16.09 Partly Cloudy SCT014 14 9     70%     1013.9 1013.9      
Sep 17 08:55 NW 24 16.09 Partly Cloudy SCT010 14 10     75%     1013.6 1013.5      
Sep 17 08:33 NW 26 16.09 Partly Cloudy SCT010 14 11     78%     1013.2        
Sep 17 08:14 NW 26 16.09 Mostly Cloudy BKN010 14 10     77%     1012.9        
Sep 17 07:55 NNW 24 16.09 Partly Cloudy SCT010 14 11     81%     1012.9 1012.7      
Sep 17 07:52 NNW 24 16.09 Partly Cloudy SCT010 14 11     82%     1012.9        
Sep 17 06:55 NW 22 16.09 Mostly Cloudy BKN010 15 12     81%     1012.2 1011.9      
Sep 17 06:13 NW 24 16.09 Mostly Cloudy BKN010 16 13     83%     1011.5        
Sep 17 05:55 NW 18 16.09 Partly Cloudy SCT011 16 13     83%     1011.5 1011.2      
Sep 17 05:44 NW 21 16.09 Partly Cloudy SCT011 17 13     80%     1011.5        
Sep 17 05:12 NW 17 16.09 Mostly Cloudy BKN010 18 16     87%     1011.2        
Sep 17 04:55 NW 17 16.09 Clear CLR 19 16     84%     1011.2 1010.6      
Sep 17 03:55 NW 17 16.09 Clear CLR 21 17     81%     1010.5 1010      
Sep 17 02:55 W 17 16.09 Clear CLR 21 17     76%     1010.5 1009.8      
Sep 17 01:55 WSW 17 16.09 Clear CLR 23 17     68%   23 1009.8 1009.3      
Sep 17 00:55 SW 24 16.09 Mostly Cloudy BKN070 23 17     66%   23 1009.8 1009.2      
Sep 16 23:55 SSW 18 16.09 Partly Cloudy SCT080 23 17     71%   23 1010.2 1009.6      
Sep 16 22:55 SSW 22 16.09 Clear CLR 23 17     71%   23 1010.5 1009.9      
Sep 16 21:55 SSW 18 16.09 Clear CLR 22 18     79%   22 1010.5 1010.4      
Sep 16 20:55 S 11 16.09 Clear CLR 21 18     81%     1010.8 1010.7      
Sep 16 19:55 S 15 16.09 Clear CLR 23 18     73%   23 1010.8 1010.6      
Sep 16 18:55 S 11 16.09 Clear CLR 24 18     71%   24 1011.2 1010.7      
Sep 16 17:55 S 18 16.09 Mostly Clear FEW040 26 19     65%   26 1011.2 1010.8      
Sep 16 16:55 S 21 16.09 Mostly Clear FEW040 27 19     64%   28 1011.5 1011.2      
Sep 16 15:55 S 17 16.09 Mostly Clear FEW040 26 19     69%   26 1012.2 1011.8      
Sep 16 14:55 S 17 16.09 Mostly Clear FEW004 FEW040 26 20     69%   27 1013.2 1012.8      
Sep 16 13:55 S 18 16.09 Mostly Clear FEW004 FEW060 26 20     71%   26 1014.2 1013.9      
Sep 16 12:55 S 17 16.09 Mostly Clear FEW004 FEW060 24 19     74%   25 1015.2 1014.8      
Sep 16 11:55 SSE 13 16.09 Mostly Clear FEW004 21 19     90%     1016.3 1016.1      
Sep 16 11:53 SSE 13 16.09 Mostly Clear FEW004 21 19     88%     1016.3        
Sep 16 11:02 SE 15 0.8 Fog VV002 19 18     93%     1016.9        
Sep 16 10:55 SE 15 0.4 Fog VV002 19 18     93%     1016.9 1017      
Sep 16 10:11 SE 17 0.2 Fog VV002 18 17     93%     1017.3        
Sep 16 09:55 SE 15 0.1 Fog VV002 18 18     97%     1017.6 1017.6      
Sep 16 08:55 ESE 15 0.2 Fog VV002 18 17     96%     1018 1018      
Sep 16 07:55 SE 21 0.2 Fog VV002 17 16     93%     1018.3 1018.4      
Sep 16 06:55 ESE 18 0.2 Fog VV002 17 16     96%     1018.6 1018.9      
Sep 16 06:13 ESE 22 0.4 Fog VV002 17 16     96%     1018.6        
Sep 16 05:55 ESE 22 0.8 Fog VV002 17 16     96%     1019 1019      
Sep 16 04:55 ESE 22 0.2 Fog VV002 17 16     96%     1019 1019.1      
Sep 16 03:55 ESE 26 0.2 Fog VV002 17 16     96%     1019.3 1019.3      
Sep 16 03:16   0.2 Fog VV002 17 16     93%     1019.3        
Sep 16 02:55   0.2 Fog VV001 17 16     93%     1019.7 1019.5      
Sep 16 01:55 ESE 26 0.2 Fog VV001 17 16     93%     1019.7 1019.7      
Sep 16 01:33 ESE 26 0.2 Fog VV001 17 16     93%     1020        
Sep 16 01:11 ESE 26 0.4 Fog VV002 17 16     93%     1020        
Sep 16 00:55 ESE 24 0.8 Fog VV002 17 16     93%     1020.3 1020.4     0
Sep 15 23:55 E 18 0.8 Fog VV002 17 16     93%     1020.7 1020.8      
Sep 15 22:55   0.8 Fog VV002 17 16     93%     1020 1020      
Sep 15 22:02   0.8 Fog VV002 17 16     93%     1020        
Sep 15 21:55   4.02 Fog/Mist OVC002 17 16     93%     1020 1020 0 0  
Sep 15 20:55 E 28 4.02 Light Drizzle and Fog/Mist OVC002 17 16     93%     1020.7 1020.8 0    
Sep 15 19:55 E 21 4.02 Light Drizzle and Fog/Mist OVC003 17 16     93%     1020 1019.9 0    
Sep 15 18:55 E 18 4.02 Fog/Mist OVC003 18 16     90%     1020.3 1020.3      
Sep 15 17:55 E 21 4.02 Fog/Mist OVC003 18 16     90%     1020.7 1020.5      
Sep 15 17:39 E 21 16.09 Cloudy OVC004 18 16     87%     1020.7        
Sep 15 17:06 E 21 16.09 Cloudy BKN006 OVC009 19 17     87%     1020.7        
Sep 15 16:55 E 21 16.09 Cloudy OVC010 19 17     87%     1020.7 1020.7      
Sep 15 16:18 ENE 24 16.09 Cloudy OVC005 19 16     84%     1021        
Sep 15 15:55 E 24 16.09 Cloudy OVC004 18 16     87%     1021 1020.8      
Sep 15 14:55 E 15 6.44 Fog/Mist OVC003 19 17     90%     1021 1020.8      
Sep 15 13:55 E 15 4.83 Fog/Mist OVC003 18 17     90%     1021.3 1021.1      
Sep 15 12:55 E 18 4.83 Cloudy OVC002 18 17     93%     1021.3 1021.3      
Sep 15 11:55 E 17 16.09 Cloudy OVC003 18 18     97%     1021.3 1021.3      
Sep 15 11:24 E 18 16.09 Cloudy OVC003 19 18     93%     1021.3        
Sep 15 11:02 E 18 3.22 Fog/Mist OVC002 19 18     96%     1021.3        
Sep 15 10:55 E 15 1.61 Fog/Mist OVC002 19 18     93%     1021.3 1021.2      
Sep 15 10:29 ESE 15 1.61 Fog/Mist VV002 19 18     96%     1021.3        
Sep 15 09:55 ESE 15 0.4 Fog VV002 19 18     93%     1021 1020.5      
Sep 15 09:53 ESE 15 0.4 Fog VV002 19 18     94%     1021        
Sep 15 08:55 ESE 5 0.4 Fog VV002 19 18     96%     1020.7 1020.3      
Sep 15 08:53 ESE 5 0.4 Fog VV002 19 18     94%     1020.7        
Sep 15 08:04 ENE 8 0.4 Fog VV003 19 18     93%     1020        
Sep 15 07:55 E 5 0.4 Fog VV002 19 18     93%     1020 1019.7      
Sep 15 06:55 E 8 0.2 Fog VV002 18 17     93%     1019.3 1019.1     4
Sep 15 06:17 E 8 0.2 Fog VV002 18 18     97%     1019.7        
Sep 15 06:02 E 9 0.8 Fog VV002 18 18     97%     1019.3        
Sep 15 05:55 ESE 17 0.4 Fog VV002 18 18     97%     1019.7 1019.1 0    
Sep 15 05:31 ESE 17 0.4 Fog VV002 18 18     97%     1019.7   0    
Sep 15 05:15 SE 17 0.4 Fog VV002 19 18     96%     1019.7   0    
Sep 15 05:11 SE 18 0.8 Fog VV002 19 18     93%     1019.7   0    
Sep 15 05:00 SE 21 2.82 Light Rain and Fog/Mist BKN002 OVC090 19 18     93%     1019.3   0    
Sep 15 04:55 SE 22 14.48 Light Rain BKN002 OVC095 19 18     93%     1019 1018.6 2    
Sep 15 04:50 SE 22 16.09 Light Rain BKN002 BKN075 OVC095 19 18     94%     1019   2    
Sep 15 04:34 SE 21 16.09 Thunderstorms and Rain BKN002 OVC035 19 18     93%     1019.3   2    
Sep 15 04:23 SE 26 6.44 Thunderstorms and Rain and Fog/Mist BKN002 OVC035 19 18     93%     1019.7   2    
Sep 15 04:19 SE 26 2.41 Thunderstorms and Rain and Fog/Mist BKN002 OVC035 19 18     90%     1019.7   2    
Sep 15 04:08   1.21 Thunderstorms and Rain and Fog/Mist BKN002 OVC035 19 19     97%         1    
Sep 15 03:55 N 9 3.22 Thunderstorms and Rain and Fog/Mist BKN002 OVC035 19 19     97%     1020.3 1019.9 0 3  
Sep 15 03:50 9 1.61 Thunderstorms and Rain and Fog/Mist BKN002 OVC035 19 19     100%     1020   0    
Sep 15 03:47 SSW 8 1.21 Fog/Mist VV002 19 18     93%     1019.3   0    
Sep 15 03:45 SSE 17 0.8 Thunderstorms and Rain and Fog FEW050 BKN090 OVC110 19 18     93%     1018.6   0    
Sep 15 03:37 SE 22 0.8 Thunderstorms and Rain and Fog FEW050 BKN090 OVC110 19 18     93%     1018   0    
Sep 15 03:31 SE 24 2.41 Thunderstorms and Rain and Fog/Mist FEW050 BKN090 OVC110 19 18     93%     1018   0    
Sep 15 03:02 SSE 17 14.48 Thunderstorms and Rain FEW050 BKN090 OVC110 20 18     90%     1019   0    
Sep 15 02:55 SE 18 12.87 Thunderstorms and Rain BKN009 OVC032 20 18     90%     1018.6 1018.2 3    
Sep 15 02:37 S 17 12.87 Thunderstorms and Rain BKN009 OVC032 20 18     90%     1019   2    
Sep 15 02:29   4.02 Thunderstorms and Heavy Rain and Fog/Mist BKN009 OVC032 20 18     90%     1018.3   2    
Sep 15 02:15   3.22 Thunderstorms and Heavy Rain and Fog/Mist BKN009 OVC032 19 18     93%     1019.7   2    
Sep 15 02:05   1.21 Thunderstorms and Heavy Rain and Fog/Mist BKN009 OVC032 20 18     87%     1019.3   0    
Sep 15 01:59   4.02 Thunderstorms and Rain and Fog/Mist BKN009 OVC032 21 19     87%     1019.3   0    
Sep 15 01:55 E 11 16.09 Thunderstorms and Rain SCT016 BKN021 OVC095 21 19     87%     1018 1017.4 0    
Sep 15 01:02 E 21 16.09 Thunderstorms SCT016 BKN021 OVC095 22 19     84%   22 1018        
Sep 15 00:55 E 21 16.09 Thunderstorms BKN032 22 19     87%   22 1018 1017.3 0   0
Sep 15 00:24 E 21 16.09 Thunderstorms BKN032 22 19     87%   22 1018.3        
Sep 15 00:20 ESE 18 16.09 Mostly Clear FEW032 22 19     87%   22 1018.3        
Sep 14 23:55   16.09 Partly Cloudy FEW007 SCT025 22 20     90%   22 1018.6 1018 0    
Sep 14 23:44 E 22 16.09 Mostly Cloudy FEW007 SCT014 BKN026 22 20     90%   22 1018.6   0    
Sep 14 23:35 E 22 16.09 Light Rain SCT007 BKN014 BKN026 22 19     87%   22 1019   0    
Sep 14 23:27 E 18 16.09 Mostly Cloudy FEW008 SCT015 BKN026 22 19     87%   22 1018.6        
Sep 14 22:55 E 11 16.09 Mostly Cloudy BKN022 22 20     90%   22 1019 1018.5 0    
Sep 14 22:51 ESE 9 16.09 Mostly Cloudy BKN022 22 20     88%   23 1019   0    
Sep 14 22:00 SE 18 16.09 Light Rain SCT018 BKN047 OVC055 23 21     87%   23 1018.6   0    
Sep 14 21:55 E 21 16.09 Thunderstorms and Rain BKN018 BKN055 OVC110 23 21     87%   23 1019 1018.5 0 0  
Sep 14 21:06 ENE 8 16.09 Thunderstorms OVC021 24 21     82%   24 1019.3        
Sep 14 20:55 ENE 11 16.09 Cloudy OVC021 24 21     84%   25 1018.6 1018.1      
Sep 14 20:12 NE 11 16.09 Cloudy BKN023 BKN028 OVC047 24 21     84%   25 1018.6        
Sep 14 19:55 N 9 16.09 Mostly Cloudy BKN037 BKN048 24 21     82%   24 1019 1018.4      
Sep 14 18:55 Calm 16.09 Cloudy BKN037 OVC048 25 21     77%   26 1018.6 1018.1      
Sep 14 17:55 S 5 16.09 Mostly Cloudy BKN090 26 21     74%   26 1018.6 1018.2      
Sep 14 17:02 S 9 16.09 Mostly Cloudy BKN090 26 20     71%   26 1018.6        
Sep 14 16:55 SSW 11 16.09 Mostly Cloudy BKN023 BKN090 26 20     71%   26 1018.6 1018      
Sep 14 16:02 S 15 16.09 Mostly Cloudy BKN028 26 20     71%   26 1018.6        
Sep 14 15:55 S 13 16.09 Mostly Cloudy FEW020 SCT026 BKN085 26 21     74%   26 1018.6 1017.9      
Sep 14 14:55 S 13 16.09 Cloudy SCT021 SCT026 OVC085 26 20     69%   27 1018.3 1017.8      
Sep 14 13:55 Calm 16.09 Cloudy BKN025 OVC031 26 20     69%   27 1018.6 1017.9      
Sep 14 12:55 Calm 16.09 Cloudy OVC025 26 19     67%   27 1018.6 1018      
Sep 14 11:55 WNW 8 16.09 Mostly Cloudy BKN022 27 19     64%   28 1018.3 1017.8      
Sep 14 11:53 Calm 16.09 Mostly Cloudy BKN022 BKN042 27 19     62%   28 1018.3        
Sep 14 10:55 Calm 16.09 Mostly Cloudy SCT023 BKN075 24 19     74%   25 1018.3 1017.8      
Sep 14 10:47 5 16.09 Mostly Cloudy SCT023 BKN075 24 19     74%   25 1018.3        
Sep 14 09:55 WSW 11 16.09 Cloudy OVC021 23 19     76%   24 1018 1017.4      
Sep 14 09:02 W 15 16.09 Mostly Cloudy BKN020 23 19     79%   23 1017.6        
Sep 14 08:55 WSW 15 16.09 Partly Cloudy SCT025 SCT120 22 19     82%   23 1017.6 1017.3      
Sep 14 07:55 SW 9 16.09 Partly Cloudy SCT026 21 18     84%     1017.3 1016.7      
May 13 21:55 WSW 15 16.09 Mostly Cloudy BKN120 18 6     43%     1011.5 1011.7      
May 13 09:55 W 17 16.09 Cloudy OVC100 16 -2     30%     1016.6 1017.2      
May 13 07:55 WNW 13 16.09 Mostly Clear FEW120 12 -1     41%     1016.9 1017.5      
May 12 10:55 E 9 16.09 Clear CLR 14 -6     24%     1021.7 1022.7      
Notice The following observation data may not be complete
May 12 07:55 ENE 8 16.09 Clear CLR   -4      %     1021 1022.2      
May 12 03:55 N 5 16.09 Clear CLR -1 -6     69% -3   1019.7 1021      
Jun 11 10:55   6.44 Rain and Fog/Mist OVC095 15 14     93%     1007.1   0    
Jun 11 06:55 Calm 16.09 Partly Cloudy SCT120 16 14     87%     1008.1 1007.8      
Notice The following observation data may not be complete
Jun 10 05:21   16.09 Mostly Cloudy SCT008 SCT042 BKN075   16      %     999.3   3    
Jun 08 23:55 ENE 8 16.09 Mostly Clear FEW100 14 12     87%     1011.9 1011.8      
Jun 08 03:55 Calm 16.09 Mostly Clear FEW120 13 11     87%     1012.5 1012.4      
Jun 07 21:24 ESE 11 16.09 Thunderstorms SCT050 BKN080 BKN120 19 8     48%     1014.9        
Jun 07 13:55 S 17 16.09 Mostly Clear FEW120 26 11     38%   26 1017.6 1017.6      
Jun 06 01:55 Calm 16.09 Clear CLR 7 4     80%     1020 1020.5      
Jun 05 17:55 E 21 16.09 Clear CLR 20 8     45%     1018 1018.3      
Jun 05 14:55 E 21 16.09 Mostly Clear FEW045 21 9     49%     1018.3 1018.6